Find STARLINK-37337

NORAD ID: 70586 Constellation: starlink operational
LEOCIRCULAR

实时位置

正在加载3D地球...

关于 STARLINK-37337

正在加载描述...

即将过境

Passes for default location (London). Set your location on the main map for personalized predictions.

高度历史

Loading altitude history...

两行轨道根数

1 70586C 26099C 26122.85534722 -.00517740 00000+0 -64176-3 0 1221
2 70586 53.1634 22.7410 0004974 287.6276 342.6100 16.07299721 19
Epoch: May 2, 2026 • Age: 30 hours